Location: Young's Pond
(41.2695°N, 72.7766°W)
Time: 21:28:11
(UTC-04:00)

CZ-4B R/B - Visible Passes

Search period start: 27 July 2015 00:00
Search period end: 06 August 2015 00:00
Orbit: 417 x 521 km, 97.5° (Epoch: 27 July)

Date Brightness Start Highest point End Pass type
(mag) Time Alt. Az. Time Alt. Az. Time Alt. Az.
27 Jul 4.5 00:49:20 12° WNW 00:49:20 12° WNW 00:49:56 10° NW visible
27 Jul 3.9 22:46:01 15° ENE 22:46:01 15° ENE 22:47:44 10° NNE visible
28 Jul 3.9 00:20:04 23° NW 00:20:04 23° NW 00:21:49 10° NNW visible
28 Jul 3.3 23:50:48 34° NNW 23:50:48 34° NNW 23:53:01 10° NNW visible
29 Jul 3.3 23:21:31 28° NNE 23:21:31 28° NNE 23:23:48 10° N visible
30 Jul 4.7 00:55:34 10° WNW 00:55:34 10° WNW 00:55:40 10° WNW visible
30 Jul 3.9 22:52:14 17° NE 22:52:14 17° NE 22:54:02 10° NNE visible
31 Jul 4.1 00:26:17 19° NW 00:26:17 19° NW 00:27:44 10° NNW visible
31 Jul 3.6 23:57:00 30° NNW 23:57:00 30° NNW 23:59:01 10° NNW visible
01 Aug 3.4 23:27:44 28° NNE 23:27:44 28° NNE 23:29:52 10° N visible
02 Aug 3.9 22:58:26 18° NE 22:58:26 18° NE 23:00:13 10° NNE visible
03 Aug 4.3 00:32:29 16° NW 00:32:29 16° NW 00:33:35 10° NW visible
04 Aug 3.9 00:03:12 25° NNW 00:03:12 25° NNW 00:04:57 10° NNW visible
04 Aug 3.6 23:33:55 27° N 23:33:55 27° N 23:35:51 10° N visible
05 Aug 3.9 23:04:37 19° NE 23:04:37 19° NE 23:06:18 10° NNE visible
